Location: Nelson
(41.2830°S, 173.2830°E)
Time: 09:02:15
(UTC+13:00)

ADEOS Rocket - Pass Details

Date: 24 January 2019
Orbit: 859 x 1307 km, 98.7° (Epoch: 19 February)

Event Time Altitude Azimuth Distance (km) Brightness Sun altitude
Exits shadow 21:18:52 - 53° (NE) 2,976 4.9 -4.7°
Reaches altitude 10° 21:20:08 10° 59° (ENE) 2,547 4.5 -4.9°
Maximum altitude 21:24:45 27° 115° (ESE) 1,602 3.9 -5.7°
Drops below altitude 10° 21:29:21 10° 171° (S) 2,533 5.5 -6.4°
Sets 21:32:03 0° 182° (S) 3,492 6.5 -6.8°
